Flag for Austria Weather past 2 weeks in Tulln an der Donau, Lower Austria, Austria

Now
43 °F

Sprinkles. Broken clouds.


Feels Like: 34 °F
Forecast: 37 / 57 °F
Wind: 18 mph from West

Location: Tulln Airport

Current Time: Mar 30, 2015 at 6:39:58 PM

Latest Report: Mar 30, 2015 at 5:50 PM


Visibility: 6 mi

Pressure: 29.65 "Hg

Humidity: 76%

Dew point: 36 °F

Location of Tulln an der DonauLocation

Historic Weather in Tulln an der Donau — Graph

°F

Tulln an der Donau temperature yesterday

Maximum temperature yesterday: 59 °F (at 2:50 PM)
Minimum temperature yesterday: 34 °F (at 5:50 AM)
Average temperature yesterday: 51 °F

Past Weeks' High & Low Weather Summary

 TemperatureHumidityPressure
High63 °F (Mar 24, 2:50 PM)100% (Mar 25, 4:50 AM)30.51 "Hg (Mar 25, 4:50 AM)
Low27 °F (Mar 21, 5:50 AM)29% (Mar 21, 2:50 PM)29.45 "Hg (Mar 30, 5:50 AM)
Average48 °F65%30.06 "Hg
* Reported Mar 15 3:50 PM — Mar 30 4:50 PM, Tulln an der Donau, Weather by CustomWeather, © 2015

Note: Actual official high and low records may vary slightly from our data, if they occured in-between our weather recording intervals... More about our weather records

Advertising

Tulln an der Donau weather history for previous 24 hours

 ConditionsComfort  
Time TempWeatherWind HumidityBarometerVisibility
4:50 PM
Mon, Mar 30
50 °FPartly sunny.28 mph62%29.62 "Hg19 mi
3:50 PM52 °FScattered clouds.30 mph58%29.56 "Hg19 mi
2:50 PM54 °FPartly sunny.31 mph47%29.56 "Hg19 mi
1:50 PM50 °FLight rain. Partly sunny.24 mph58%29.56 "Hg16 mi
12:50 PM48 °FLight rain. Partly sunny.16 mph87%29.53 "Hg19 mi
11:50 AM48 °FSprinkles. Broken clouds.18 mph87%29.50 "Hg16 mi
10:50 AM50 °FSprinkles. Broken clouds.21 mph76%29.50 "Hg22 mi
9:50 AM48 °FSprinkles. Partly sunny.7 mph87%29.50 "Hg22 mi
8:50 AM46 °FSprinkles. Broken clouds.5 mph87%29.53 "Hg12 mi
7:50 AM46 °FPartly sunny.10 mph82%29.53 "Hg22 mi
6:50 AM54 °FPassing clouds.21 mph72%29.47 "Hg22 mi
5:50 AM54 °FPartly cloudy.23 mph67%29.45 "Hg16 mi
10:50 PM
Sun, Mar 29
50 °FPartly cloudy.8 mph82%29.62 "Hg16 mi
9:50 PM52 °FPassing clouds.16 mph77%29.65 "Hg16 mi
8:50 PM52 °FPassing clouds.22 mph77%29.68 "Hg16 mi
7:50 PM54 °FPartly sunny.24 mph72%29.68 "Hg22 mi
6:50 PM55 °FLight rain. Partly sunny.8 mph72%29.68 "Hg22 mi
Weather by CustomWeather, © 2015

See weather overviewHow to use our weather pages